Regional Weather Roundup
Issued by NWS

Home | Current Version | Previous Version | Graphics & Text | Print | Product List | Glossary On
Versions: 1 2 3 4 5 6 7 8 9 10 11 12 13 14 15 16 17 18 19 20 21 22 23 24 25 26 27
000
ASUS45 KCYS 272110
RWRWY

WYOMING REGIONAL WEATHER ROUNDUP
NATIONAL WEATHER SERVICE CHEYENNE WY
300 PM MDT SAT AUG 27 2016

NOTE:  "FAIR" INDICATES FEW OR NO CLOUDS BELOW 12,000 FEET
WITH NO SIGNIFICANT WEATHER AND/OR OBSTRUCTIONS TO VISIBILITY.

WYZ001-272200-
YELLOWSTONE NATIONAL PARK

CITY           SKY/WX    TMP DP  RH WIND       PRES   REMARKS
LK YELLOWSTONE   N/A     65  22  19 VRB5G20   30.19F
W YELLOWSTONE  NOT AVBL

$$
WYZ002>013-054>058-071-098>099-272200-
NORTHERN WYOMING

CITY           SKY/WX    TMP DP  RH WIND       PRES   REMARKS
JACKSON        SUNNY     73  25  16 SW14      30.11F
CODY           FAIR      72  36  26 E6        29.96F
GREYBULL       FAIR      80  30  16 CALM      29.90F
WORLAND        FAIR      82  30  15 W5        29.90F
SHERIDAN       FAIR      82  41  23 N6        29.89F
BUFFALO        FAIR      82  26  13 N8        29.95F
GILLETTE       FAIR      80  27  14 SW6G17    29.92F
HULETT         FAIR      81  43  26 W10       29.94F
NEWCASTLE      FAIR      77  41  27 E8G18     29.98F

$$
WYZ014>020-022>026-101>103-272200-
CENTRAL WYOMING

CITY           SKY/WX    TMP DP  RH WIND       PRES   REMARKS
BIG PINEY      FAIR      73  26  17 CALM      30.15F
PINEDALE       FAIR      70  23  17 SW6       30.17F
DUBOIS         FAIR      70  18  13 W21G26    30.11F
LANDER         FAIR      80  27  14 VRB3      30.00F
RIVERTON       FAIR      76  27  16 VRB3      30.02F
CASPER         FAIR      79  28  15 SW15G24   30.02F
DOUGLAS        FAIR      83  31  15 NW15G24   30.01F

$$
WYZ021-027>030-104>119-272200-
SOUTHERN WYOMING

CITY           SKY/WX    TMP DP  RH WIND       PRES   REMARKS
EVANSTON       FAIR      75  19  12 SW15G25   30.19F
FORT BRIDGER   FAIR      78  21  12 W15G26    30.20F
ROCK SPRINGS   FAIR      76  24  14 SW12G24   30.15F
DIXON          FAIR      77  25  14 W13G24    30.19F
RAWLINS        FAIR      76  28  17 SW21G29   30.15F
SARATOGA       FAIR      75  23  14 W16G30    30.19F
LARAMIE        PTSUNNY   72  27  18 W14       30.17F
CHEYENNE       FAIR      77  31  18 SW5       30.11F
TORRINGTON     FAIR      85  39  19 SE9       29.97F
PINE BLUFFS    FAIR      81  34  18 SE9       30.07F

$$




USA.gov is the U.S. government's official web portal to all federal, state and local government web resources and services.